Temperature
9 9 9 10 11 12 11 11 12 12 13 12 12 13 14 14 14 14 14 14 15 15 15 15 15 15 16 17 17 18 18 18 18 18 17 16 15 14 13 13 13 13 13 12
8 8 10 11 10 10 10 10 10 11 12 11 11 12 13 14 14 14 14 14 15 15 15 15 15 15 15 16 17 18 18 18 18 18 17 15 15 14 14 13 13 13 12 12
9 9 10 9 9 9 9 9 10 10 11 11 10 12 15 16 15 14 14 14 14 15 15 16 16 16 15 16 16 17 18 18 17 17 16 16 15 14 13 13 13 12 12 11
9 9 8 8 8 9 9 10 9 9 9 9 10 10 14 15 14 14 14 14 14 15 15 15 15 16 15 16 16 17 17 17 17 16 16 16 14 13 13 12 12 12 11 11
8 8 8 8 9 9 9 9 9 9 9 8 9 8 12 15 14 14 15 15 15 15 15 14 14 15 15 15 16 16 17 16 16 16 15 14 13 12 12 12 12 11 10 10
9 9 9 9 9 9 9 8 8 8 7 7 11 10 12 16 15 15 16 15 15 15 14 14 14 14 14 14 15 16 16 16 16 15 14 13 13 13 12 12 11 11 10 10
8 8 9 8 8 8 8 7 8 8 7 9 12 11 12 15 15 15 15 15 15 14 14 14 13 13 13 13 14 15 15 16 15 14 13 12 12 12 12 12 11 11 10 10
7 9 9 8 8 8 8 8 8 9 10 12 11 10 13 15 14 14 14 14 13 13 13 13 13 13 13 13 14 15 15 15 14 13 12 12 12 12 12 12 11 10 10 9
8 8 8 8 8 8 7 7 9 8 8 8 10 12 14 14 13 14 14 13 13 13 12 12 12 12 12 12 13 14 14 14 13 12 12 11 11 12 11 11 10 10 9 9
9 7 8 8 7 8 9 8 7 6 7 8 11 12 13 14 14 14 14 13 13 12 12 12 11 11 10 10 11 11 12 12 12 12 11 11 11 11 10 10 9 9 9 8
8 7 7 7 6 7 7 6 6 7 8 8 9 12 15 14 14 14 14 13 12 12 11 11 10 10 9 8 8 8 9 10 11 11 11 11 10 10 9 9 9 8 8 8
8 7 7 8 9 9 9 8 7 6 7 7 8 11 14 14 13 13 13 12 11 10 10 9 9 8 7 6 6 7 8 10 10 11 10 10 10 9 8 8 8 8 7 7
8 6 6 9 8 8 7 8 8 7 6 7 7 10 13 13 13 12 12 11 10 10 9 8 7 6 6 5 5 6 8 9 10 10 10 9 9 8 8 8 8 7 7 6
8 6 7 9 10 8 7 7 7 6 6 7 8 10 12 12 12 11 11 10 10 9 7 6 6 5 5 5 5 7 8 10 10 9 9 8 8 8 8 7 7 6 6 5
7 6 7 7 8 8 8 8 7 6 6 7 9 10 11 11 11 10 10 9 9 7 6 5 5 4 4 4 5 7 9 9 9 8 8 8 7 7 7 7 6 5 5 4
7 7 7 7 9 9 9 9 8 7 7 7 7 8 10 10 9 9 9 8 8 7 5 4 4 3 4 4 5 7 8 8 8 8 7 7 7 7 6 6 5 4 3 3
7 7 7 8 10 9 9 9 8 8 8 8 7 9 10 9 9 8 8 7 7 6 4 3 3 3 4 4 6 7 7 7 7 7 7 7 6 6 5 5 4 3 2 2
7 7 7 7 8 9 11 10 9 8 9 9 9 9 9 9 8 7 6 6 6 5 4 3 3 2 3 4 5 6 6 6 7 7 6 6 6 5 4 3 3 2 1 1
8 7 7 7 8 10 11 10 9 8 9 9 9 9 9 9 8 7 5 5 5 5 4 3 3 3 4 4 5 6 6 6 6 6 6 5 4 4 3 2 2 1 1 0
7 7 7 7 8 10 11 11 9 8 10 9 8 9 9 9 10 7 4 5 4 4 4 4 3 4 4 5 5 6 6 6 6 5 5 4 3 3 2 1 1 0 -0 -0
7 7 7 7 8 10 12 10 10 10 10 9 8 8 8 8 6 4 3 4 4 4 4 4 4 4 5 5 5 6 5 5 5 4 3 3 2 1 1 0 -0 -0 -1 -1
9 8 8 8 9 10 12 10 10 10 9 7 6 6 5 4 3 3 3 3 4 3 3 4 4 4 4 5 5 5 5 4 4 3 2 2 1 1 0 -0 -1 -1 -1 -2
9 10 10 10 11 12 9 9 8 6 6 5 5 4 4 3 2 2 3 3 3 3 3 4 5 4 4 4 5 5 4 3 3 2 1 1 0 -0 -1 -1 -1 -2 -2 -2
10 9 9 10 11 11 9 8 6 5 4 4 4 3 4 3 2 2 2 2 3 3 3 3 4 4 3 4 4 4 3 2 2 1 1 0 -0 -1 -1 -2 -2 -2 -3 -3
11 9 9 10 11 11 9 6 6 5 4 4 4 4 3 4 3 3 3 3 3 3 3 3 4 4 3 3 3 2 2 1 1 0 -0 -1 -1 -1 -2 -2 -2 -3 -3 -4
10 10 11 12 11 11 9 6 6 5 4 4 4 3 3 4 3 4 3 3 3 3 3 3 3 3 2 2 2 1 0 0 0 -0 -1 -1 -2 -2 -2 -3 -3 -3 -4 -5
Wind_Speed
7 7 10 12 14 11 7 10 13 12 10 13 21 26 24 22 23 24 23 23 23 23 22 20 18 17 15 14 13 13 12 13 13 12 11 10 9 8 7 7 12 13 14 14
6 11 12 8 8 10 13 15 16 14 12 12 22 31 28 26 28 27 26 25 25 25 24 23 21 18 17 16 14 13 13 14 15 13 12 8 8 7 8 8 10 12 14 14
10 1 5 9 10 12 14 16 16 15 15 15 19 23 20 15 18 20 22 23 24 25 25 24 23 22 19 17 16 13 14 15 16 15 12 11 8 7 6 8 8 9 12 13
9 8 5 7 10 11 11 10 12 13 10 8 7 12 17 11 12 13 16 19 21 21 22 22 23 23 21 19 15 15 15 16 16 17 16 18 12 10 8 9 9 11 12 12
8 7 11 13 13 12 7 4 7 10 12 13 14 11 18 12 15 15 16 18 18 19 19 20 21 21 20 18 15 15 16 17 17 18 18 17 14 11 12 12 14 12 10 11
8 6 7 8 8 11 8 4 8 10 8 11 15 15 17 14 14 13 13 14 15 15 16 17 18 18 17 15 15 15 17 17 18 18 18 18 19 19 19 17 15 11 9 9
8 11 10 6 6 7 9 5 4 5 7 11 7 11 16 14 10 13 13 13 13 13 13 14 14 15 15 16 17 17 19 19 19 18 18 18 20 22 22 19 16 14 11 10
6 7 11 11 12 9 13 10 8 6 8 10 8 14 14 13 12 14 15 14 13 13 12 13 13 13 15 17 19 19 20 19 19 19 18 18 18 15 14 16 15 13 11 11
7 4 4 9 10 9 7 11 11 8 12 12 13 15 16 15 17 18 17 14 12 12 13 13 12 12 14 17 19 20 20 20 20 19 19 19 18 16 16 16 14 11 11 11
6 5 4 5 7 12 10 5 6 7 7 10 15 21 15 14 14 14 13 11 10 12 13 13 11 10 12 14 16 17 19 19 20 20 18 16 17 17 16 15 15 14 14 12
8 6 4 6 11 14 13 9 10 8 9 8 13 14 8 10 11 12 11 11 11 13 14 13 9 7 10 12 15 17 18 19 19 19 19 19 18 17 16 14 15 14 14 12
11 6 7 11 12 13 16 17 16 11 13 12 13 18 11 12 10 10 10 11 13 14 13 10 5 7 11 14 16 17 18 18 18 18 19 19 18 17 16 15 15 14 13 11
10 6 5 5 6 9 11 18 22 18 14 17 19 18 6 7 10 11 13 14 15 14 9 3 4 9 13 14 16 16 17 18 18 19 19 19 18 17 17 16 15 13 12 11
9 7 9 10 8 6 10 15 19 19 16 20 26 30 27 21 19 19 18 17 16 11 5 3 7 10 13 14 15 16 17 17 18 19 19 19 17 17 16 15 14 12 11 10
8 7 11 18 21 21 24 26 22 23 24 22 28 30 31 25 20 19 18 15 12 7 4 7 10 12 13 14 15 16 17 17 18 19 18 17 17 16 16 14 13 11 10 8
7 6 9 17 20 21 24 24 22 20 19 22 27 28 24 19 14 14 13 11 9 5 7 10 12 13 14 15 15 16 17 17 17 18 18 17 17 16 15 13 12 11 9 7
7 5 5 10 13 16 12 10 10 10 11 12 16 17 17 15 12 11 10 8 5 5 9 12 13 13 14 15 16 17 18 18 17 18 18 17 16 15 14 12 11 9 7 6
8 6 4 7 10 6 4 4 10 12 11 11 14 16 14 11 8 7 6 4 3 7 11 12 13 13 14 15 15 17 17 18 18 18 17 16 15 14 13 11 10 8 5 4
13 8 4 4 6 11 9 4 5 6 7 7 10 12 9 7 5 5 8 4 6 10 12 13 14 15 15 16 17 18 17 17 17 17 16 15 14 13 12 10 8 6 4 2
10 10 6 4 5 5 6 8 5 5 5 7 8 9 7 5 3 5 8 8 11 13 13 14 15 16 16 16 17 18 18 17 16 16 15 14 13 12 11 9 7 4 3 1
5 6 8 7 6 7 7 8 5 4 7 10 8 6 3 2 4 4 8 11 13 14 15 15 16 15 15 16 17 17 17 16 15 15 14 13 11 10 9 7 5 3 1 0
7 6 6 5 6 6 3 4 3 6 7 8 6 3 3 7 8 9 11 13 14 15 15 15 15 15 14 15 17 18 16 16 15 15 14 12 10 8 7 6 4 2 0 2
7 6 4 6 7 5 3 5 7 6 6 5 3 2 9 10 9 11 12 13 13 14 14 14 16 16 14 13 15 18 16 15 15 14 12 11 9 7 6 4 3 1 1 3
4 4 5 6 9 8 6 5 3 3 3 3 2 6 8 11 13 13 12 13 13 14 14 15 16 17 15 14 15 16 15 14 14 13 11 9 8 6 4 3 2 1 3 4
4 6 5 7 9 7 2 2 2 4 5 7 8 9 11 14 14 14 13 13 13 13 13 14 15 16 16 15 15 14 13 14 13 12 9 8 6 5 3 2 2 2 2 4
6 8 6 5 3 3 2 2 3 5 6 8 11 13 12 13 15 15 14 13 14 14 14 15 17 17 16 15 14 12 11 12 12 10 7 5 4 3 2 2 2 1 3 6
Wind_Direction
165 192 212 216 222 250 269 262 264 267 276 286 275 275 273 271 267 265 263 262 261 260 259 257 254 252 246 237 230 224 210 197 184 180 178 176 171 155 140 138 138 137 134 132
170 226 232 233 232 245 253 262 269 279 277 280 283 281 277 266 260 258 258 258 257 256 254 250 247 244 238 231 222 214 203 190 183 179 174 170 145 126 116 116 120 127 129 129
206 180 210 212 223 236 246 253 266 276 296 280 287 287 274 259 251 252 252 253 253 251 249 245 240 236 231 226 217 205 195 185 180 170 153 136 121 118 116 120 118 121 123 122
225 221 196 205 224 231 255 255 261 272 279 281 282 292 287 276 257 251 250 248 247 247 245 244 241 235 227 221 211 200 188 180 174 166 165 164 164 157 153 143 132 125 121 122
208 209 217 228 233 224 245 251 254 266 272 277 255 261 281 268 258 256 252 253 254 253 250 247 243 239 230 217 203 193 182 176 172 173 172 171 160 143 134 132 129 124 121 123
230 210 219 229 234 226 227 249 266 259 260 264 254 236 274 272 261 260 257 258 263 266 263 258 252 243 233 214 197 186 179 175 172 173 172 167 153 145 142 142 138 133 130 130
228 225 218 203 197 192 201 214 255 241 231 250 256 238 257 277 261 254 261 270 279 282 278 269 258 241 222 204 193 185 178 173 171 170 168 161 156 153 151 150 147 144 142 141
213 229 207 205 212 207 201 208 226 258 261 276 257 248 261 272 260 256 260 269 279 286 288 281 263 240 217 201 191 184 177 170 167 165 160 154 151 149 148 148 147 144 142 140
214 241 186 205 207 207 197 216 235 267 281 277 261 260 271 256 253 254 256 264 277 291 297 294 274 242 216 199 189 182 173 166 163 158 151 148 148 145 143 142 139 134 133 136
214 246 224 191 198 219 226 209 202 216 258 266 269 269 267 271 261 253 253 261 282 300 305 305 283 241 211 194 183 175 167 160 155 150 146 144 143 141 140 139 138 136 135 135
203 224 230 190 209 209 201 210 215 231 242 261 279 276 284 273 267 258 258 274 294 304 309 307 286 226 190 174 168 162 156 150 148 145 141 139 138 138 137 135 134 134 134 136
201 219 250 240 230 224 220 222 218 232 240 241 262 275 280 269 262 257 273 292 302 304 305 300 260 177 164 161 158 154 149 146 143 139 137 136 136 136 134 132 133 133 133 134
174 201 261 255 216 215 234 237 235 239 253 254 257 268 278 261 258 267 283 294 299 304 302 277 169 158 155 154 151 148 144 140 138 136 134 134 135 134 133 132 132 131 130 131
182 210 229 257 279 265 250 250 241 236 245 254 252 264 272 274 278 281 284 288 294 297 276 187 153 150 148 147 145 141 137 136 136 135 134 134 134 132 130 129 129 129 130 132
198 238 244 260 272 273 269 270 264 250 246 252 263 270 278 284 285 283 282 283 284 273 206 162 151 144 142 141 138 135 134 135 135 132 130 129 128 126 126 126 126 127 126 127
209 256 271 273 273 273 275 275 273 266 256 251 262 271 278 286 285 280 278 278 267 234 174 154 146 143 143 141 138 135 133 134 133 129 127 127 127 126 126 126 127 126 126 129
206 236 269 285 299 296 278 281 284 276 259 253 260 267 287 293 289 288 289 278 242 184 158 150 148 146 144 142 140 136 134 132 128 126 125 127 127 126 126 127 128 129 131 135
220 232 262 291 306 285 295 308 301 297 286 268 263 274 289 295 302 316 320 286 181 152 145 143 141 137 135 133 132 130 129 127 126 124 125 127 127 126 128 128 128 129 132 141
222 228 251 275 289 284 290 308 311 307 309 321 295 289 295 299 301 19 15 42 115 130 133 132 133 131 130 131 132 128 125 125 124 126 127 129 129 129 130 130 129 130 137 146
213 216 232 262 289 288 309 332 321 269 321 357 338 318 317 324 20 28 26 72 98 110 116 121 124 125 127 131 131 126 125 124 125 126 126 126 127 128 128 127 126 127 136 150
177 198 223 244 261 275 291 315 311 333 338 332 339 327 318 30 49 60 66 81 95 104 112 118 121 123 127 131 128 122 120 120 121 121 119 119 119 119 120 120 121 125 128 284
198 198 207 213 235 263 316 330 333 315 314 314 325 346 105 106 95 86 85 90 98 105 111 115 115 115 120 126 123 117 115 118 119 118 115 114 114 112 115 118 119 115 27 315
213 214 221 223 247 294 312 284 300 309 299 313 322 101 128 118 107 101 97 97 100 104 108 111 113 111 112 117 119 116 119 121 119 116 114 112 110 108 113 115 113 85 342 325
221 208 233 262 269 281 293 300 326 353 347 5 84 130 134 124 120 111 105 102 102 103 107 112 112 110 107 108 110 115 120 121 118 117 115 116 115 113 108 97 71 3 340 327
231 188 222 257 278 292 302 16 32 65 74 82 89 104 120 122 119 115 109 106 105 106 107 108 108 108 109 110 109 114 119 121 117 115 115 114 111 111 101 74 29 341 331 323
215 206 216 252 290 291 344 64 91 96 93 101 105 103 105 114 116 112 107 107 108 108 109 108 108 109 111 111 109 110 116 120 119 117 115 111 107 96 70 20 346 272 300 320
Height
1488 1490 1487 1486 1487 1485 1487 1486 1484 1482 1482 1483 1473 1464 1462 1463 1462 1460 1459 1459 1458 1457 1458 1459 1460 1461 1462 1464 1466 1469 1471 1473 1474 1476 1478 1480 1483 1486 1489 1493 1496 1500 1503 1506
1488 1487 1484 1486 1488 1489 1489 1488 1485 1483 1482 1482 1470 1457 1452 1452 1450 1450 1450 1449 1448 1448 1449 1450 1451 1452 1454 1456 1458 1461 1464 1466 1467 1469 1472 1474 1477 1480 1484 1488 1492 1496 1500 1503
1480 1483 1484 1487 1488 1489 1488 1487 1484 1483 1481 1477 1472 1447 1433 1432 1436 1439 1440 1439 1438 1437 1437 1439 1441 1443 1445 1447 1450 1453 1456 1459 1461 1463 1465 1468 1471 1475 1480 1484 1488 1492 1496 1499
1481 1482 1485 1486 1486 1487 1485 1483 1485 1485 1485 1476 1473 1458 1425 1427 1430 1432 1432 1430 1428 1427 1428 1428 1430 1432 1435 1438 1442 1446 1449 1451 1454 1456 1459 1462 1465 1470 1475 1480 1485 1489 1493 1496
1477 1480 1482 1483 1482 1484 1482 1484 1485 1483 1482 1479 1468 1470 1427 1423 1424 1423 1423 1422 1420 1420 1420 1420 1421 1423 1426 1430 1433 1437 1441 1444 1447 1450 1454 1458 1462 1466 1471 1477 1481 1486 1490 1494
1475 1479 1479 1478 1479 1482 1483 1486 1484 1482 1482 1475 1451 1454 1423 1409 1411 1413 1414 1415 1415 1415 1414 1414 1414 1416 1419 1421 1424 1429 1433 1437 1441 1445 1449 1453 1456 1461 1467 1473 1478 1483 1487 1491
1473 1474 1475 1478 1479 1481 1484 1486 1480 1474 1473 1457 1440 1441 1418 1405 1409 1409 1409 1409 1409 1409 1409 1407 1407 1408 1410 1412 1416 1421 1426 1430 1434 1439 1444 1448 1453 1459 1465 1470 1475 1480 1484 1489
1468 1464 1468 1471 1473 1475 1477 1478 1474 1465 1449 1436 1435 1431 1408 1403 1406 1407 1407 1406 1405 1404 1403 1402 1400 1401 1402 1404 1408 1413 1419 1424 1429 1433 1439 1444 1450 1456 1462 1468 1473 1478 1482 1487
1463 1462 1465 1468 1470 1472 1474 1474 1468 1468 1458 1453 1430 1412 1402 1400 1402 1402 1401 1401 1400 1399 1398 1396 1394 1394 1395 1397 1401 1407 1412 1418 1423 1429 1434 1440 1447 1453 1459 1465 1471 1476 1481 1485
1461 1464 1463 1466 1470 1470 1467 1467 1471 1472 1460 1440 1415 1403 1394 1388 1391 1393 1395 1395 1395 1394 1393 1390 1389 1388 1390 1393 1397 1402 1408 1413 1419 1425 1431 1438 1444 1451 1458 1464 1470 1475 1480 1483
1460 1465 1462 1465 1463 1459 1466 1469 1466 1459 1453 1441 1418 1395 1383 1386 1387 1388 1390 1390 1390 1390 1388 1386 1384 1384 1385 1389 1393 1398 1404 1410 1416 1423 1429 1436 1443 1450 1457 1463 1469 1474 1478 1481
1458 1461 1458 1453 1450 1452 1452 1452 1455 1455 1444 1436 1423 1395 1384 1384 1384 1386 1387 1388 1387 1385 1383 1381 1380 1380 1382 1386 1390 1396 1401 1408 1415 1421 1428 1436 1443 1450 1456 1463 1468 1473 1477 1479
1455 1461 1455 1440 1447 1451 1450 1445 1443 1445 1440 1430 1421 1396 1381 1383 1382 1383 1384 1383 1382 1380 1378 1377 1377 1378 1381 1385 1389 1395 1401 1407 1414 1422 1429 1436 1443 1450 1456 1463 1468 1472 1475 1477
1453 1454 1451 1438 1430 1438 1442 1438 1436 1439 1430 1416 1403 1387 1378 1380 1380 1380 1380 1378 1377 1376 1375 1375 1376 1378 1381 1385 1389 1394 1401 1408 1415 1422 1429 1436 1444 1450 1457 1462 1467 1470 1473 1475
1451 1449 1445 1439 1434 1432 1429 1425 1423 1423 1417 1411 1392 1384 1374 1374 1376 1376 1374 1373 1372 1373 1373 1374 1376 1378 1382 1386 1390 1395 1401 1409 1416 1423 1431 1438 1445 1451 1457 1462 1466 1469 1471 1473
1446 1443 1439 1433 1425 1420 1415 1409 1407 1405 1402 1398 1392 1382 1374 1373 1373 1372 1370 1369 1369 1370 1371 1373 1375 1379 1382 1386 1390 1396 1403 1411 1418 1425 1433 1440 1446 1452 1457 1462 1465 1468 1470 1471
1440 1440 1437 1424 1414 1413 1405 1400 1398 1396 1391 1390 1385 1376 1372 1371 1370 1369 1367 1366 1366 1368 1370 1373 1376 1379 1383 1387 1392 1398 1405 1413 1421 1428 1436 1442 1448 1453 1458 1461 1464 1467 1468 1469
1435 1436 1435 1426 1418 1408 1397 1395 1395 1391 1385 1382 1378 1374 1372 1370 1369 1368 1366 1365 1365 1367 1370 1373 1377 1381 1385 1390 1395 1402 1409 1417 1425 1432 1438 1444 1449 1454 1458 1461 1463 1465 1466 1467
1430 1433 1432 1426 1416 1402 1392 1392 1393 1390 1383 1379 1375 1371 1370 1369 1368 1368 1367 1365 1366 1369 1372 1375 1379 1383 1388 1393 1399 1406 1414 1421 1429 1435 1441 1446 1451 1455 1458 1461 1463 1464 1464 1464
1426 1429 1430 1424 1417 1404 1391 1389 1389 1391 1381 1379 1377 1373 1371 1370 1366 1372 1372 1370 1371 1372 1375 1378 1383 1387 1392 1399 1405 1412 1418 1425 1432 1438 1443 1448 1452 1456 1458 1460 1462 1462 1462 1462
1422 1424 1423 1421 1416 1400 1390 1389 1388 1386 1384 1379 1378 1376 1374 1374 1376 1377 1375 1375 1375 1377 1380 1384 1388 1393 1398 1405 1411 1417 1423 1429 1435 1441 1445 1449 1453 1456 1458 1460 1460 1460 1460 1459
1412 1413 1414 1413 1410 1400 1388 1388 1387 1386 1382 1380 1378 1377 1376 1377 1378 1378 1379 1379 1381 1383 1386 1390 1393 1399 1405 1411 1416 1421 1427 1433 1439 1443 1447 1451 1454 1456 1458 1459 1459 1458 1457 1455
1406 1405 1402 1402 1397 1389 1389 1388 1386 1384 1382 1379 1378 1377 1377 1378 1380 1381 1382 1384 1386 1388 1391 1395 1399 1404 1410 1417 1422 1426 1432 1437 1441 1446 1449 1452 1454 1456 1457 1457 1457 1455 1454 1452
1402 1403 1402 1398 1390 1388 1387 1386 1384 1382 1380 1378 1377 1377 1378 1379 1381 1384 1386 1388 1391 1394 1397 1401 1405 1409 1415 1422 1428 1432 1436 1441 1445 1448 1451 1453 1454 1455 1456 1455 1454 1453 1450 1448
1396 1399 1398 1394 1388 1386 1385 1385 1384 1382 1380 1379 1379 1379 1381 1382 1384 1387 1389 1392 1395 1399 1402 1407 1411 1415 1420 1427 1432 1437 1441 1444 1447 1450 1452 1453 1454 1454 1454 1453 1452 1450 1447 1445
1392 1392 1392 1387 1386 1387 1386 1385 1384 1383 1382 1382 1382 1383 1385 1386 1388 1391 1394 1397 1400 1404 1408 1412 1417 1421 1426 1432 1436 1440 1444 1447 1449 1451 1452 1453 1453 1453 1452 1451 1449 1447 1445 1442